Showing default

LIZZIESAT, 59132

Orbit data source: Space-Track

LIZZIESAT, 59132 is a payload satellite owned by Sidus Space (US) in SSO that was launched on Mon, 04 Mar 2024 UTC via an FALCON 9 launch vehicle from the Air Force Western Test Range (AFWTR). Payload-class satellites include a variety of spacecraft equipped with specific instruments for various scientific and technological missions. These include communications satellites like Starlink; space stations such as the ISS; scientific satellites like the Hubble; Earth observation satellites from companies like Planet Labs, Umbra, and HawkEye 360; GPS; miniature CubeSats for education and research; and military/defense satellites.

Loading next visibility...
Identifier
59132, 2024-043AL
Orbit
SSO
Last TLE update
16 hours ago
Origin
Manufacturer
Sidus Space
Mission
Operational Commercial Technology
Bus & Motor
LIZZIESAT, Unknown motor
Mass
~100 kg wet, ~100 kg dry
Launch date (UTC)
2024-03-04 (1 year ago)
Launch vehicle
FALCON 9
Launch site
Air Force Western Test Range (AFWTR)
Object type
Payload
Rocket body
Debris
Shape & HBR
Oct Cyl + 8 Pan, 1.4 m
Radar Cross Section
1.008 m², Medium (>0.1 m² and < 1m²)

Expand to show TLE details & history

TLE from 16 hours ago
0 LIZZIESAT
1 59132U 24043AL  25182.08238568  .00002742  00000-0  11664-3 0  9997
2 59132  97.5189 310.0649 0012550  45.6206 314.6057 15.23819874 73408
Epoch: 2025-07-01T01:58Z
TLE epoch observation values (Epoch: 2025-07-01T01:58:38.122Z)
Latitude
0.00001°
Longitude
1.02311°
Altitude
491.371 km
Speed
7.623 km/s
True Right ascension
20h 40m 15s
True Declination
0° 00' 00"
Sunlit
Object was in full shadow at epoch
Visualization orbit readout
Latitude
71.06767°
Longitude
-20.80496°
Altitude
499.067 km
Speed
7.626 km/s
Apparent Right ascension
18h 10m 56s
Apparent Declination
18° 57' 59"
Sunlit
Object is in daylight
Visualization observer readout
Local Sidereal Time
05:42:53
Azimuth
352.28° N
Elevation
-30.755°
Doppler factor
1
Orbital elements
Apogee altitude
499.918 km
Perigee altitude
482.676 km
Semi-major axis
6,869.434 km
Eccentricity
0.00126
Inclination
97.5189°
RAAN
310.0649°
Arg. of periapsis
45.6206°
True anomaly
Unknown
Mean anomaly
314.6057°
Eccentric anomaly
Unknown
Mean motion
3.81208 °/min
Orbital period
94.44 mins
BSTAR
0.00011664
Loading maneuver chart data...
Loading SW <> Apogee altitude chart data...
Loading historical data...
Loading historical data...
Loading historical data...
Loading historical data...
Loading historical data...
Loading historical data...
Loading historical data...

LIZZIESAT Visibility forecast

Observer location: undefined°, undefined°

Span
Click to sort rows by Start time (UTC) header in descending order
Start Az.
Max El. time (UTC)
Max El. Az.
Max El.
End time (UTC)
End Az.
6 mins2025-07-01 21:27:11.705Z10.982° NNE2025-07-01 21:30:11.705Z206.936° SW44.069°2025-07-01 21:33:11.705Z194.497° SSW
5 mins2025-07-02 08:04:11.705Z124.948° SE2025-07-02 08:06:11.705Z73.198° E28.098°2025-07-02 08:09:11.705Z9.766° NNE
|